(152102) = 2001 DC101 = 2004 RD107 = 2005 WX150

Discovered at Socorro on 2004-09-09 by LINEAR.

Orbit

Orbit type: Main Belt

Note: WebGL enabled browser required.

epoch2024-03-31.0
epoch JD2460400.5
perihelion date2022-10-17.36603
perihelion JD2459869.86603
argument of perihelion (°)107.93052
ascending node (°)323.61345
inclination (°)3.69402
eccentricity0.1439540
perihelion distance (AU)2.7171783
Tisserand w.r.t. Jupiter3.2
ΔV w.r.t. Earth (km/sec)10.4
semimajor axis (AU)3.1741033
mean anomaly (°)92.48415
mean daily motion (°/day)0.17428990
aphelion distance (AU)3.631
period (years)5.65
P-vector [x]0.31540405
P-vector [y]0.84444977
P-vector [z]0.43292595
Q-vector [x]-0.94818746
Q-vector [y]0.29881584
Q-vector [z]0.10793347
absolute magnitude15.36
phase slope0.15
uncertainty0
referenceMPEC 2024-E123
observations used557
oppositions17
arc length (days)11132
first opposition used1993
last opposition used2024
residual rms (arc-secs)0.72
perturbers coarse indicatorM-v
perturbers precise indicator003Ek
first observation date used1993-09-14.0
last observation date used2024-03-07.0
computer nameMPCLINUX
JD of orbit computation2456465.510303
perihelion JD uncertainty (days)1.4178E-04
argument of perihelion uncertainty (°)8.5839E-05
ascending node uncertainty (°)8.0761E-05
inclination uncertainty (°)6.2798E-06
eccentricity uncertainty 4.4521E-08
perihelion distance uncertainty (AU)1.3813E-07
Minimum Orbit Intersection Distances (in AU)
for orbit epoch: 2460400.5, reference: E2024-G95
Mercury2.40936
Venus1.99847
Earth1.7351
Mars1.16275
Jupiter1.65655
Saturn6.24777
Uranus15.1576
Neptune26.8019

Observations

569 total observations over interval: 1993 09 14.24549 – 2024 03 07.399250
These data are available for download (format description).

Date (UT) J2000 RA J2000 Dec Magn Location Ref
1993 09 14.24549 23 35 27.31 +00 19 20.1 18.8   809 – European Southern Observatory, La Silla MPS 155307
1993 09 14.26632 23 35 26.28 +00 19 14.9   809 – European Southern Observatory, La Silla MPS 155307
1993 09 14.28715 23 35 25.31 +00 19 09.6   809 – European Southern Observatory, La Silla MPS 155307
1998 06 27.40185 21 06 08.23 -18 30 15.4 21.4 V 691 – Steward Observatory, Kitt Peak-Spacewatch MPS 155307
1998 06 27.42373 21 06 07.66 -18 30 16.9 21.3 V 691 – Steward Observatory, Kitt Peak-Spacewatch MPS 155307
1998 06 27.44542 21 06 07.13 -18 30 18.9 21.4 V 691 – Steward Observatory, Kitt Peak-Spacewatch MPS 155307
1999 10 10.27224 02 13 55.54 +18 57 16.4 19.1   704 – Lincoln Laboratory ETS, New Mexico MPS 155307
1999 10 10.28847 02 13 54.89 +18 57 14.3 19.5   704 – Lincoln Laboratory ETS, New Mexico MPS 155307
1999 10 10.30416 02 13 54.30 +18 57 13.3 19.2   704 – Lincoln Laboratory ETS, New Mexico MPS 155307
1999 10 10.31919 02 13 53.52 +18 57 10.6 19.7   704 – Lincoln Laboratory ETS, New Mexico MPS 155307
1999 10 10.33434 02 13 52.93 +18 57 08.7 19.7   704 – Lincoln Laboratory ETS, New Mexico MPS 155307
1999 10 31.24054 01 57 24.64 +17 52 03.4 18.2 R 703 – Catalina Sky Survey MPS 155307
1999 10 31.25255 01 57 24.06 +17 52 00.0 18.5 R 703 – Catalina Sky Survey MPS 155307
1999 10 31.26454 01 57 23.39 +17 51 54.3 18.1 R 703 – Catalina Sky Survey MPS 155307
1999 10 31.27659 01 57 22.64 +17 51 54.7 18.2 R 703 – Catalina Sky Survey MPS 155307
1999 11 04.24618 01 54 11.20 +17 35 44.1 19.0   704 – Lincoln Laboratory ETS, New Mexico MPS 155307
1999 11 04.26265 01 54 10.36 +17 35 39.7 19.2   704 – Lincoln Laboratory ETS, New Mexico MPS 155307
1999 11 04.27924 01 54 09.56 +17 35 36.5 18.9   704 – Lincoln Laboratory ETS, New Mexico MPS 155307
1999 11 04.29611 01 54 08.69 +17 35 31.4 19.1   704 – Lincoln Laboratory ETS, New Mexico MPS 155307
1999 11 04.31271 01 54 07.92 +17 35 28.3 19.4   704 – Lincoln Laboratory ETS, New Mexico MPS 155307
2001 02 16.24277 09 46 00.66 +13 20 08.3 19.7 V 691 – Steward Observatory, Kitt Peak-Spacewatch MPS 28107
2001 02 16.26414 09 45 59.55 +13 20 12.3 19.4 V 691 – Steward Observatory, Kitt Peak-Spacewatch MPS 28107
2001 02 16.28550 09 45 58.44 +13 20 16.3 19.3 V 691 – Steward Observatory, Kitt Peak-Spacewatch MPS 28107
2001 02 22.24489 09 41 04.97 +13 37 57.9 18.9   704 – Lincoln Laboratory ETS, New Mexico MPS 28107
2001 02 22.25891 09 41 04.22 +13 38 00.4 19.0   704 – Lincoln Laboratory ETS, New Mexico MPS 28107
2001 02 22.27364 09 41 03.46 +13 38 02.5 18.9   704 – Lincoln Laboratory ETS, New Mexico MPS 28107
2001 02 22.28765 09 41 02.85 +13 38 04.4 19.3   704 – Lincoln Laboratory ETS, New Mexico MPS 28107
2001 02 22.30260 09 41 02.03 +13 38 07.5 19.3   704 – Lincoln Laboratory ETS, New Mexico MPS 28107
2004 09 09.18826 22 20 05.86 -08 59 45.8 19.5   704 – Lincoln Laboratory ETS, New Mexico MPS 113130
2004 09 09.19942 22 20 05.44 -08 59 48.4 19.8   704 – Lincoln Laboratory ETS, New Mexico MPS 113130
2004 09 09.21121 22 20 04.92 -08 59 50.3 19.8   704 – Lincoln Laboratory ETS, New Mexico MPS 113130
2004 09 09.22237 22 20 04.36 -08 59 52.0 19.7   704 – Lincoln Laboratory ETS, New Mexico MPS 113130
2004 09 10.22769 22 19 20.08 -09 03 09.4 19.9   704 – Lincoln Laboratory ETS, New Mexico MPS 113130
2004 09 10.23918 22 19 19.56 -09 03 11.2 20.2   704 – Lincoln Laboratory ETS, New Mexico MPS 113130
2004 09 10.26277 22 19 18.41 -09 03 17.0 19.7   704 – Lincoln Laboratory ETS, New Mexico MPS 113130
2004 09 10.27422 22 19 17.87 -09 03 18.0 19.4   704 – Lincoln Laboratory ETS, New Mexico MPS 113130
2004 09 16.14825 22 15 11.20 -09 21 27.1 20.0 V 691 – Steward Observatory, Kitt Peak-Spacewatch MPS 113130
2004 09 16.18245 22 15 09.77 -09 21 33.1 20.2 V 691 – Steward Observatory, Kitt Peak-Spacewatch MPS 113130
2004 09 16.21106 22 15 08.60 -09 21 38.4 20.0 V 691 – Steward Observatory, Kitt Peak-Spacewatch MPS 113130
2005 11 28.30155 05 22 34.80 +28 34 16.1 18.8   704 – Lincoln Laboratory ETS, New Mexico MPS 154050
2005 11 28.31507 05 22 34.11 +28 34 14.2 19.2   704 – Lincoln Laboratory ETS, New Mexico MPS 154050
2005 11 28.34136 05 22 32.71 +28 34 14.0 19.5   704 – Lincoln Laboratory ETS, New Mexico MPS 154050
2005 11 28.35506 05 22 31.97 +28 34 13.6 19.6   704 – Lincoln Laboratory ETS, New Mexico MPS 154050
2005 12 02.34466 05 19 01.33 +28 30 56.5 19.7   704 – Lincoln Laboratory ETS, New Mexico MPS 154050
2005 12 02.35760 05 19 00.59 +28 30 56.0 19.2   704 – Lincoln Laboratory ETS, New Mexico MPS 154050
2005 12 02.38409 05 18 59.14 +28 30 54.4 19.7   704 – Lincoln Laboratory ETS, New Mexico MPS 154050
2005 12 05.25013 05 16 21.72 +28 27 41.2 19.0   704 – Lincoln Laboratory ETS, New Mexico MPS 154050
2005 12 05.26339 05 16 20.97 +28 27 40.2 19.0   704 – Lincoln Laboratory ETS, New Mexico MPS 154050
2005 12 05.27646 05 16 20.24 +28 27 39.7 19.4   704 – Lincoln Laboratory ETS, New Mexico MPS 154050
2005 12 05.28960 05 16 19.43 +28 27 38.1 19.3   704 – Lincoln Laboratory ETS, New Mexico MPS 154050
2005 12 05.30252 05 16 18.77 +28 27 37.5 19.1   704 – Lincoln Laboratory ETS, New Mexico MPS 154050
2005 12 06.19908 05 15 28.88 +28 26 27.0 19.1 V 691 – Steward Observatory, Kitt Peak-Spacewatch MPS 154050
2005 12 06.21670 05 15 27.87 +28 26 26.2 20.3 V 691 – Steward Observatory, Kitt Peak-Spacewatch MPS 154050
2005 12 06.23424 05 15 26.86 +28 26 24.6 19.1 V 691 – Steward Observatory, Kitt Peak-Spacewatch MPS 154050
2005 12 28.17363 04 56 00.02 +27 40 03.7 18.2 V 703 – Catalina Sky Survey MPS 156583
2005 12 28.18184 04 55 59.62 +27 40 02.7 18.4 V 703 – Catalina Sky Survey MPS 156583
2005 12 28.19002 04 55 59.23 +27 40 01.5 18.4 V 703 – Catalina Sky Survey MPS 156583
2005 12 28.19823 04 55 58.87 +27 39 59.9 18.1 V 703 – Catalina Sky Survey MPS 156583
2005 12 29.20355 04 55 14.48 +27 37 18.1 19.0   704 – Lincoln Laboratory ETS, New Mexico MPS 156583
2005 12 29.21636 04 55 13.88 +27 37 16.5 19.4   704 – Lincoln Laboratory ETS, New Mexico MPS 156583
2005 12 29.22924 04 55 13.25 +27 37 15.2 20.0   704 – Lincoln Laboratory ETS, New Mexico MPS 156583
2005 12 29.24233 04 55 12.64 +27 37 12.2 19.2   704 – Lincoln Laboratory ETS, New Mexico MPS 156583
2005 12 29.25530 04 55 12.13 +27 37 09.6 19.3   704 – Lincoln Laboratory ETS, New Mexico MPS 156583
2005 12 30.29249 04 54 27.79 +27 34 22.0 18.4 V G96 – Mt. Lemmon Survey MPS 157770
2005 12 30.30357 04 54 27.28 +27 34 20.1 18.4 V G96 – Mt. Lemmon Survey MPS 157770
2005 12 30.31368 04 54 26.85 +27 34 18.3 18.4 V G96 – Mt. Lemmon Survey MPS 157770
2005 12 30.32384 04 54 26.42 +27 34 16.4 18.3 V G96 – Mt. Lemmon Survey MPS 157770
2006 01 06.21028 04 50 11.91 +27 15 29.6 19.2   704 – Lincoln Laboratory ETS, New Mexico MPS 158968
2006 01 06.22325 04 50 11.50 +27 15 27.8 19.4   704 – Lincoln Laboratory ETS, New Mexico MPS 158968
2006 01 06.23635 04 50 11.11 +27 15 24.3 19.8   704 – Lincoln Laboratory ETS, New Mexico MPS 158968
2006 01 06.24951 04 50 10.54 +27 15 23.4 19.6   704 – Lincoln Laboratory ETS, New Mexico MPS 158968
2006 01 06.26237 04 50 10.13 +27 15 21.1 19.8   704 – Lincoln Laboratory ETS, New Mexico MPS 158968
2006 02 01.15419 04 46 13.33 +26 15 49.3 19.4 V G96 – Mt. Lemmon Survey MPS 161792
2006 02 01.16015 04 46 13.44 +26 15 48.4 19.3 V G96 – Mt. Lemmon Survey MPS 161792
2006 02 01.16612 04 46 13.51 +26 15 48.2 19.3 V G96 – Mt. Lemmon Survey MPS 161792
2006 02 01.17208 04 46 13.58 +26 15 47.2 19.3 V G96 – Mt. Lemmon Survey MPS 161792
2006 02 02.24270 04 46 29.02 +26 14 00.9 19.1 V G96 – Mt. Lemmon Survey MPS 161792
2006 02 02.24956 04 46 29.13 +26 14 00.3 19.2 V G96 – Mt. Lemmon Survey MPS 161792
2006 02 02.25643 04 46 29.20 +26 13 59.5 19.2 V G96 – Mt. Lemmon Survey MPS 161792
2006 02 02.26316 04 46 29.31 +26 13 58.8 19.1 V G96 – Mt. Lemmon Survey MPS 161792
2006 02 03.13184 04 46 43.60 +26 12 35.3 19.4 V G96 – Mt. Lemmon Survey MPS 162789
2006 02 03.13880 04 46 43.71 +26 12 34.7 19.4 V G96 – Mt. Lemmon Survey MPS 162789
2006 02 03.14575 04 46 43.82 +26 12 33.9 19.4 V G96 – Mt. Lemmon Survey MPS 162789
2006 03 03.16367 05 04 27.22 +25 46 10.9 20.2 V G96 – Mt. Lemmon Survey MPS 166079
2006 03 03.17054 05 04 27.62 +25 46 10.7 20.3 V G96 – Mt. Lemmon Survey MPS 166079
